Showing default

HJ-2A, 46478

Orbit data source: Space-Track

HJ-2A, 46478 is a payload satellite owned by CRESDA (CN) in SSO that was launched on Sun, 27 Sep 2020 UTC via a CHANG ZHENG 4B launch vehicle from the Taiyaun Space Center, China (TSC). Payload-class satellites include a variety of spacecraft equipped with specific instruments for various scientific and technological missions. These include communications satellites like Starlink; space stations such as the ISS; scientific satellites like the Hubble; Earth observation satellites from companies like Planet Labs, Umbra, and HawkEye 360; GPS; miniature CubeSats for education and research; and military/defense satellites.

Loading next visibility...
Identifier
46478, 2020-067A
Orbit
SSO
Country
Flag of CNCN / PRC
Related business
Manufacturer
DFH
Mission
Operational Civil Imaging
Bus & Motor
CAST-2000, Unknown motor
Mass
510 kg wet, 510 kg dry
Launch date (UTC)
2020-09-27 (5 years ago)
Launch vehicle
CHANG ZHENG 4B
Launch site
Taiyaun Space Center, China (TSC)
Object type
Payload
Rocket body
Debris
Shape & HBR
Box + 2 Pan, Unknown HBR
Radar Cross Section
2.715 m², Large (>1 m²)

Expand to show TLE details & history
Last TLE update: 8 hours ago

TLE from 8 hours ago
0 HJ-2A
1 46478U 20067A   25307.90760336  .00000232  00000-0  40523-4 0  9990
2 46478  97.9042  26.3705 0002100 260.7662  99.3311 14.76488947275016
Epoch: 2025-11-03T21:46Z
TLE epoch observation values (Epoch: 2025-11-03T21:46:56.930Z)
Latitude
0.00004°
Longitude
16.23105°
Altitude
643.685 km
Speed
7.536 km/s
True Right ascension
01h 45m 28s
True Declination
0° 00' 00"
Sunlit
Object was in full shadow at epoch
Visualization orbit readout
Latitude
Unknown
Longitude
Unknown
Altitude
Unknown
Speed
Unknown
Apparent Right ascension
Unknown
Apparent Declination
Unknown
Sunlit
N/A
Visualization observer readout
Local Sidereal Time
01:39:43
Azimuth
Unknown
Elevation
Unknown
Doppler factor
Unknown
Orbital elements
Apogee altitude
638.948 km
Perigee altitude
636.001 km
Semi-major axis
7,015.612 km
Eccentricity
0.00021
Inclination
97.9042°
RAAN
26.3705°
Arg. of periapsis
260.7662°
True anomaly
99.35484°
Mean anomaly
99.3311°
Eccentric anomaly
99.34297°
Mean motion
3.69356 °/min
Orbital period
97.47 mins
BSTAR
0.000040523
Loading maneuver chart data...
Computing Atmospheric mass density...
Loading historical data...
Loading historical data...
Loading historical data...
Loading historical data...
Loading historical data...
Loading historical data...
Loading historical data...

Documentation

Showing up to 5 results
|